Regional Weather Roundup
Issued by NWS Northern Indiana

Home | Current Version | Previous Version | Text Only | Print | Product List | Glossary Off
Versions: 1 2 3 4 5 6 7 8 9 10 11 12 13 14 15 16 17 18 19 20 21 22 23 24 25 26 27 28 29 30 31 32 33 34 35 36 37 38 39 40 41 42 43 44 45 46 47 48 49 50

000
ASUS43 KIWX 152201
RWRIWX

KIWX WEATHER ROUNDUP
NATIONAL WEATHER SERVICE NORTHERN INDIANA
600 PM EDT TUE AUG 15 2017

NOTE: "FAIR" INDICATES FEW OR NO CLOUDS BELOW 12,000 FEET WITH NO
SIGNIFICANT WEATHER AND/OR OBSTRUCTIONS TO VISIBILITY.

* THESE STATIONS ARE NOT UNDER NWS QUALITY CONTROL. THEY ALSO MAY NOT
  REPORT WEATHER SUCH AS PRECIPITATION OR FOG.

INZ001>027-152300-
NORTHERN INDIANA

CITY           SKY/WX    TMP DP  RH WIND       PRES   REMARKS
GARY*          MOSUNNY   79  68  69 NE15      29.94S
MICHIGAN CITY* SUNNY     75  64  69 N9        29.95R
SOUTH BEND     SUNNY     81  65  58 NW10      29.94S
ELKHART*       MOSUNNY   82  63  51 N9        29.93S
GOSHEN         SUNNY     83  63  50 NW10      29.92S
MONTICELLO*    MOSUNNY   85  65  49 W8        29.91S
WARSAW*        SUNNY     82  64  54 NW9       29.93R
FORT WAYNE     PTSUNNY   83  66  56 NW10      29.92S
PERU/GRISSOM   MOSUNNY   85  67  54 NW8       29.91S

$$
INZ028>050-152300-
CENTRAL INDIANA

CITY           SKY/WX    TMP DP  RH WIND       PRES   REMARKS
LAFAYETTE      MOSUNNY   85  68  56 CALM      29.90S
KOKOMO*        MOSUNNY   85  68  56 W8        29.93S
MUNCIE*        SUNNY     85  66  53 W5        29.92F
INDIANAPOLIS   MOSUNNY   85  64  49 W6        29.91S

$$
MIZ043>046-050>051-056>058-064>065-071>073-077>080-152300-
SOUTHWEST LOWER MICHIGAN

CITY           SKY/WX    TMP DP  RH WIND       PRES   REMARKS
BATTLE CREEK   MOSUNNY   82  63  52 NW9       29.94S
BENTON HARBOR  SUNNY     75  62  64 VRB6      29.95S
COLDWATER*     PTSUNNY   82  60  48 N7        29.93S
HILLSDALE*     PTSUNNY   81  59  47 NW5       29.93S
HOLLAND        SUNNY     77  61  57 NW9       29.95S
GRAND RAPIDS   PTSUNNY   80  58  46 N3        29.93S
KALAMAZOO      PTSUNNY   84  61  45 N8        29.93S
STURGIS*       MOSUNNY   80  66  61 N5        29.93S
THREE RIVERS*  FAIR      84  62  46 W9        29.93S

$$
OHZ001>008-015>018-024>025-152300-
NORTHWEST OHIO

CITY           SKY/WX    TMP DP  RH WIND       PRES   REMARKS
DEFIANCE       PTSUNNY   84  63  49 N6        29.91S
FINDLAY        CLOUDY    86  63  45 W10       29.90S
TOLEDO EXPRESS SUNNY     83  63  50 N10       29.90S
TOLEDO METCALF MOSUNNY   84  65  52 NE7       29.91S
LIMA           PTSUNNY   83  65  54 NW8       29.92S

$$
AND FOR LAKE MICHIGAN COASTAL AND OPEN LAKE BUOY OBSERVATIONS

STATION/POSITION TEMP    WIND        PRES    VSBY  WAVE
                 AIR SEA DIR/SP/G                  HT/PER
                 (F)     (DEG/KT/KT) (MB)    (MI)  (FT/S)
CALUMET HARBOR    74      10/ 11/ 13 1013.7R
MICHIGAN CITY     73      10/ 15/ 16   N/A
BURNS HARBOR      74      30/ 13/ 15 1014.2S
SAINT JOSEPH      75      10/ 10/ 14 1015.6
SOUTH LAKE BUOY   69 72   10/ 14/ 16 1014.6          2/ 4
4 MI NW BRIDGMAN  72 75   40/ 12/ 16 1013.9S         2/ 2
MICHIGAN CITY     73 74   30/ 12/ 16   N/A           1

$$
&&




USA.gov is the U.S. government's official web portal to all federal, state and local government web resources and services.